Location: Boda
(47.1872°N, 9.5454°E)
Time: 09:48:45
(UTC+00:00)

Cosmos 1459 Rocket - Pass Details

Date: 14 May 2021
Orbit: 936 x 1000 km, 83.0° (Epoch: 16 June)

Event Time Altitude Azimuth Distance (km) Brightness Sun altitude
Rises 01:22:30 0° 347° (NNW) 3,699 7.7 -18.5°
Reaches altitude 10° 01:25:06 10° 342° (NNW) 2,737 6.9 -18.2°
Maximum altitude 01:31:05 49° 270° (W) 1,225 4.3 -17.7°
Enters shadow 01:34:06 28° 211° (SSW) 1,730 4.7 -17.4°
